QPF
0.00 0.00 0.00 0.00 0.00 0.00 0.01 0.02 0.04 0.04 0.05 0.05 0.05 0.05 0.03 0.03 0.01 0.00 0.00 0.00 0.00 0.00 0.00 0.00 0.00 0.00 0.00 0.01 0.01 0.01 0.01 0.00 0.00 0.00 0.00 0.01 0.02 0.05 0.07 0.11 0.17 0.14 0.05
0.00 0.00 0.00 0.00 0.00 0.00 0.01 0.02 0.04 0.05 0.06 0.06 0.06 0.05 0.04 0.03 0.01 0.01 0.00 0.00 0.00 0.00 0.00 0.00 0.00 0.00 0.00 0.00 0.00 0.00 0.00 0.00 0.00 0.01 0.02 0.02 0.02 0.06 0.11 0.13 0.20 0.12 0.05
0.00 0.00 0.00 0.00 0.00 0.00 0.01 0.01 0.03 0.05 0.06 0.06 0.06 0.05 0.05 0.03 0.02 0.01 0.00 0.00 0.00 0.00 0.00 0.00 0.00 0.00 0.00 0.00 0.00 0.00 0.00 0.00 0.01 0.03 0.13 0.19 0.06 0.04 0.15 0.24 0.26 0.11 0.03
0.00 0.00 0.00 0.00 0.00 0.00 0.00 0.01 0.02 0.03 0.04 0.04 0.05 0.04 0.04 0.02 0.01 0.00 0.01 0.00 0.00 0.00 0.00 0.00 0.00 0.00 0.00 0.00 0.00 0.00 0.00 0.01 0.01 0.06 0.25 0.21 0.11 0.04 0.10 0.17 0.16 0.09 0.05
0.00 0.00 0.00 0.00 0.00 0.00 0.00 0.01 0.01 0.02 0.02 0.03 0.03 0.03 0.02 0.01 0.01 0.00 0.00 0.00 0.00 0.01 0.01 0.00 0.00 0.00 0.00 0.00 0.00 0.00 0.00 0.01 0.02 0.09 0.16 0.19 0.15 0.06 0.08 0.11 0.11 0.08 0.04
0.00 0.00 0.00 0.00 0.00 0.00 0.00 0.00 0.01 0.01 0.01 0.02 0.02 0.02 0.01 0.01 0.01 0.01 0.00 0.00 0.00 0.01 0.01 0.01 0.01 0.01 0.00 0.00 0.00 0.00 0.00 0.01 0.04 0.07 0.06 0.12 0.11 0.04 0.07 0.10 0.10 0.08 0.04
0.00 0.00 0.00 0.00 0.01 0.00 0.00 0.01 0.01 0.01 0.01 0.01 0.01 0.01 0.01 0.01 0.01 0.01 0.01 0.00 0.01 0.01 0.01 0.01 0.01 0.01 0.01 0.00 0.00 0.00 0.00 0.01 0.04 0.06 0.03 0.08 0.09 0.02 0.05 0.09 0.11 0.09 0.05
0.00 0.00 0.00 0.00 0.01 0.01 0.01 0.01 0.01 0.01 0.01 0.02 0.02 0.02 0.02 0.01 0.01 0.01 0.01 0.02 0.01 0.01 0.01 0.01 0.01 0.01 0.01 0.01 0.00 0.00 0.00 0.00 0.02 0.03 0.02 0.07 0.05 0.01 0.02 0.05 0.08 0.11 0.11
0.00 0.01 0.01 0.01 0.01 0.01 0.01 0.02 0.02 0.02 0.02 0.03 0.03 0.02 0.02 0.02 0.02 0.02 0.02 0.02 0.02 0.02 0.02 0.02 0.01 0.01 0.02 0.01 0.01 0.00 0.00 0.00 0.02 0.02 0.03 0.08 0.03 0.01 0.01 0.02 0.04 0.09 0.13
0.00 0.00 0.01 0.03 0.03 0.03 0.02 0.02 0.02 0.02 0.03 0.03 0.03 0.03 0.02 0.02 0.04 0.05 0.04 0.04 0.04 0.03 0.04 0.03 0.03 0.03 0.03 0.02 0.02 0.01 0.00 0.00 0.01 0.02 0.05 0.11 0.06 0.02 0.01 0.02 0.02 0.04 0.10
0.00 0.00 0.01 0.03 0.02 0.03 0.04 0.03 0.04 0.04 0.05 0.05 0.09 0.10 0.07 0.08 0.16 0.24 0.18 0.12 0.09 0.06 0.05 0.06 0.06 0.04 0.04 0.03 0.02 0.02 0.01 0.00 0.00 0.03 0.10 0.15 0.08 0.04 0.04 0.04 0.03 0.03 0.04
0.01 0.00 0.01 0.02 0.03 0.02 0.04 0.06 0.08 0.11 0.16 0.15 0.21 0.21 0.24 0.25 0.21 0.16 0.19 0.14 0.10 0.08 0.06 0.09 0.09 0.06 0.05 0.06 0.08 0.06 0.01 0.00 0.00 0.02 0.11 0.11 0.06 0.05 0.05 0.06 0.05 0.04 0.04
0.01 0.02 0.01 0.02 0.03 0.04 0.05 0.08 0.11 0.15 0.18 0.16 0.18 0.20 0.24 0.24 0.22 0.18 0.23 0.20 0.16 0.13 0.14 0.17 0.12 0.09 0.12 0.14 0.16 0.10 0.03 0.01 0.01 0.01 0.07 0.09 0.05 0.04 0.05 0.06 0.07 0.07 0.06
0.02 0.03 0.03 0.03 0.05 0.06 0.09 0.12 0.16 0.15 0.12 0.13 0.13 0.12 0.18 0.21 0.22 0.22 0.24 0.22 0.21 0.24 0.23 0.25 0.25 0.22 0.23 0.19 0.14 0.13 0.09 0.04 0.02 0.01 0.06 0.08 0.04 0.03 0.02 0.03 0.05 0.08 0.08
0.06 0.06 0.05 0.05 0.05 0.06 0.10 0.12 0.11 0.08 0.06 0.06 0.05 0.05 0.08 0.10 0.12 0.14 0.15 0.16 0.17 0.21 0.22 0.22 0.20 0.21 0.21 0.20 0.14 0.13 0.11 0.09 0.06 0.04 0.06 0.07 0.03 0.02 0.01 0.01 0.02 0.04 0.07
0.09 0.08 0.06 0.05 0.05 0.06 0.07 0.07 0.05 0.03 0.04 0.05 0.05 0.04 0.04 0.04 0.05 0.05 0.07 0.09 0.09 0.12 0.13 0.15 0.16 0.18 0.18 0.18 0.13 0.14 0.10 0.10 0.07 0.05 0.04 0.06 0.03 0.02 0.02 0.01 0.01 0.02 0.03
0.14 0.10 0.07 0.07 0.04 0.04 0.04 0.04 0.03 0.02 0.02 0.02 0.02 0.02 0.02 0.02 0.02 0.02 0.03 0.04 0.05 0.05 0.06 0.08 0.09 0.11 0.11 0.11 0.11 0.13 0.11 0.09 0.07 0.05 0.05 0.08 0.06 0.03 0.01 0.01 0.01 0.01 0.02
0.12 0.09 0.06 0.04 0.02 0.02 0.02 0.02 0.01 0.01 0.00 0.00 0.00 0.00 0.00 0.00 0.01 0.01 0.01 0.02 0.03 0.03 0.03 0.04 0.05 0.06 0.08 0.09 0.10 0.09 0.09 0.07 0.06 0.06 0.05 0.05 0.05 0.02 0.02 0.01 0.01 0.01 0.01
0.08 0.06 0.04 0.03 0.02 0.01 0.01 0.01 0.00 0.00 0.00 0.00 0.00 0.00 0.00 0.00 0.00 0.00 0.01 0.01 0.01 0.01 0.01 0.01 0.03 0.03 0.04 0.05 0.04 0.05 0.06 0.05 0.05 0.03 0.03 0.03 0.04 0.03 0.04 0.03 0.02 0.01 0.01
0.07 0.04 0.03 0.02 0.01 0.00 0.00 0.00 0.00 0.00 0.00 0.00 0.00 0.00 0.00 0.00 0.00 0.00 0.00 0.00 0.00 0.01 0.01 0.01 0.01 0.01 0.01 0.01 0.01 0.03 0.03 0.03 0.03 0.02 0.01 0.02 0.02 0.02 0.02 0.04 0.04 0.02 0.01
0.03 0.02 0.02 0.01 0.00 0.00 0.00 0.00 0.00 0.00 0.00 0.00 0.00 0.00 0.00 0.00 0.00 0.00 0.00 0.00 0.00 0.00 0.00 0.00 0.01 0.01 0.01 0.01 0.01 0.01 0.01 0.02 0.02 0.01 0.01 0.02 0.02 0.03 0.04 0.05 0.05 0.05 0.03
0.01 0.01 0.01 0.00 0.00 0.00 0.00 0.00 0.00 0.00 0.00 0.00 0.00 0.00 0.00 0.00 0.00 0.00 0.00 0.00 0.00 0.00 0.00 0.01 0.01 0.01 0.01 0.00 0.00 0.01 0.01 0.01 0.03 0.01 0.03 0.05 0.04 0.05 0.06 0.07 0.08 0.09 0.06
0.00 0.00 0.00 0.00 0.01 0.01 0.00 0.00 0.00 0.01 0.01 0.00 0.00 0.00 0.00 0.00 0.00 0.00 0.00 0.00 0.00 0.00 0.01 0.01 0.01 0.02 0.01 0.00 0.00 0.00 0.01 0.01 0.04 0.04 0.05 0.07 0.07 0.08 0.07 0.08 0.09 0.11 0.08
0.00 0.00 0.00 0.01 0.01 0.01 0.01 0.01 0.01 0.01 0.01 0.01 0.00 0.00 0.00 0.00 0.00 0.00 0.00 0.00 0.00 0.00 0.00 0.00 0.01 0.01 0.01 0.01 0.00 0.00 0.00 0.01 0.02 0.03 0.04 0.06 0.08 0.09 0.09 0.06 0.05 0.09 0.10
0.00 0.00 0.00 0.03 0.03 0.02 0.01 0.01 0.01 0.01 0.01 0.00 0.00 0.00 0.00 0.00 0.00 0.00 0.00 0.00 0.00 0.00 0.00 0.00 0.00 0.01 0.01 0.01 0.01 0.01 0.01 0.01 0.01 0.01 0.02 0.04 0.05 0.05 0.07 0.07 0.06 0.07 0.09
0.00 0.00 0.00 0.03 0.04 0.03 0.01 0.01 0.01 0.01 0.00 0.00 0.00 0.00 0.00 0.00 0.00 0.00 0.00 0.00 0.00 0.00 0.00 0.00 0.00 0.00 0.01 0.02 0.02 0.02 0.01 0.01 0.01 0.01 0.01 0.01 0.02 0.02 0.03 0.04 0.05 0.06 0.08
MSLP
1010.08 1010.11 1010.28 1010.61 1011.08 1011.63 1012.17 1012.64 1012.99 1013.21 1013.33 1013.42 1013.54 1013.74 1014.03 1014.39 1014.78 1015.16 1015.45 1015.64 1015.73 1015.75 1015.74 1015.74 1015.78 1015.88 1016.03 1016.19 1016.33 1016.43 1016.48 1016.47 1016.43 1016.39 1016.36 1016.37 1016.41 1016.49 1016.59 1016.71 1016.85 1017.02 1017.22
1010.21 1010.32 1010.54 1010.92 1011.42 1011.95 1012.45 1012.86 1013.13 1013.29 1013.36 1013.43 1013.56 1013.78 1014.10 1014.50 1014.93 1015.31 1015.61 1015.79 1015.87 1015.88 1015.86 1015.86 1015.90 1015.99 1016.13 1016.27 1016.40 1016.48 1016.52 1016.51 1016.49 1016.48 1016.50 1016.55 1016.64 1016.76 1016.89 1017.04 1017.19 1017.36 1017.56
1010.27 1010.46 1010.78 1011.22 1011.75 1012.28 1012.76 1013.12 1013.34 1013.44 1013.49 1013.54 1013.66 1013.89 1014.22 1014.61 1015.02 1015.38 1015.64 1015.80 1015.87 1015.88 1015.87 1015.89 1015.95 1016.06 1016.20 1016.33 1016.44 1016.50 1016.52 1016.52 1016.52 1016.54 1016.61 1016.73 1016.88 1017.05 1017.22 1017.39 1017.56 1017.74 1017.94
1010.19 1010.50 1010.92 1011.46 1012.04 1012.60 1013.06 1013.40 1013.59 1013.67 1013.71 1013.76 1013.88 1014.10 1014.40 1014.76 1015.11 1015.41 1015.62 1015.74 1015.79 1015.81 1015.83 1015.89 1015.99 1016.13 1016.28 1016.40 1016.49 1016.52 1016.52 1016.51 1016.53 1016.59 1016.71 1016.89 1017.11 1017.33 1017.56 1017.76 1017.95 1018.14 1018.34
1009.97 1010.41 1010.96 1011.60 1012.26 1012.86 1013.34 1013.68 1013.87 1013.95 1014.00 1014.06 1014.19 1014.40 1014.67 1014.96 1015.23 1015.45 1015.58 1015.65 1015.68 1015.72 1015.78 1015.90 1016.06 1016.24 1016.40 1016.52 1016.57 1016.57 1016.54 1016.52 1016.54 1016.64 1016.81 1017.05 1017.32 1017.61 1017.87 1018.11 1018.32 1018.52 1018.72
1009.65 1010.22 1010.90 1011.65 1012.39 1013.04 1013.55 1013.91 1014.12 1014.23 1014.31 1014.40 1014.55 1014.76 1014.99 1015.22 1015.40 1015.52 1015.57 1015.59 1015.60 1015.64 1015.76 1015.93 1016.16 1016.38 1016.56 1016.68 1016.70 1016.67 1016.60 1016.55 1016.56 1016.68 1016.88 1017.17 1017.50 1017.83 1018.14 1018.40 1018.63 1018.84 1019.05
1009.30 1009.99 1010.79 1011.64 1012.45 1013.15 1013.69 1014.06 1014.29 1014.45 1014.57 1014.72 1014.90 1015.12 1015.33 1015.50 1015.60 1015.62 1015.59 1015.54 1015.53 1015.59 1015.74 1015.98 1016.26 1016.53 1016.74 1016.85 1016.85 1016.77 1016.66 1016.58 1016.58 1016.69 1016.93 1017.25 1017.62 1017.99 1018.32 1018.61 1018.85 1019.06 1019.28
1009.02 1009.80 1010.69 1011.61 1012.46 1013.18 1013.72 1014.11 1014.36 1014.55 1014.74 1014.94 1015.18 1015.42 1015.62 1015.75 1015.78 1015.72 1015.60 1015.49 1015.45 1015.51 1015.70 1015.99 1016.32 1016.64 1016.87 1016.97 1016.95 1016.84 1016.69 1016.58 1016.56 1016.67 1016.91 1017.26 1017.65 1018.05 1018.40 1018.70 1018.95 1019.17 1019.39
1008.89 1009.73 1010.67 1011.62 1012.47 1013.17 1013.69 1014.05 1014.31 1014.53 1014.77 1015.04 1015.33 1015.60 1015.81 1015.92 1015.89 1015.76 1015.57 1015.40 1015.32 1015.38 1015.58 1015.90 1016.28 1016.63 1016.88 1017.00 1016.97 1016.83 1016.66 1016.53 1016.49 1016.59 1016.84 1017.19 1017.60 1018.01 1018.38 1018.69 1018.94 1019.16 1019.39
1008.95 1009.81 1010.77 1011.70 1012.51 1013.15 1013.61 1013.93 1014.17 1014.40 1014.68 1015.00 1015.35 1015.67 1015.90 1015.98 1015.92 1015.73 1015.47 1015.25 1015.12 1015.15 1015.36 1015.69 1016.09 1016.47 1016.75 1016.88 1016.86 1016.73 1016.55 1016.41 1016.36 1016.46 1016.71 1017.06 1017.47 1017.89 1018.26 1018.58 1018.84 1019.06 1019.29
1009.21 1010.08 1011.01 1011.89 1012.62 1013.17 1013.54 1013.79 1013.99 1014.21 1014.50 1014.87 1015.27 1015.63 1015.88 1015.96 1015.87 1015.63 1015.32 1015.03 1014.85 1014.85 1015.03 1015.36 1015.77 1016.17 1016.47 1016.63 1016.63 1016.52 1016.36 1016.23 1016.19 1016.29 1016.53 1016.88 1017.30 1017.71 1018.09 1018.41 1018.68 1018.91 1019.14
1009.63 1010.48 1011.36 1012.16 1012.79 1013.23 1013.50 1013.66 1013.81 1014.02 1014.32 1014.72 1015.15 1015.54 1015.81 1015.89 1015.78 1015.50 1015.14 1014.80 1014.56 1014.51 1014.65 1014.96 1015.36 1015.77 1016.09 1016.28 1016.32 1016.25 1016.12 1016.02 1016.00 1016.10 1016.34 1016.69 1017.09 1017.51 1017.89 1018.21 1018.49 1018.73 1018.96
1010.15 1010.97 1011.79 1012.50 1013.02 1013.35 1013.52 1013.61 1013.71 1013.89 1014.19 1014.60 1015.06 1015.47 1015.74 1015.82 1015.70 1015.39 1014.99 1014.60 1014.32 1014.21 1014.30 1014.57 1014.94 1015.34 1015.68 1015.90 1015.98 1015.96 1015.88 1015.80 1015.80 1015.92 1016.15 1016.49 1016.88 1017.29 1017.67 1018.00 1018.28 1018.53 1018.78
1010.69 1011.47 1012.23 1012.85 1013.28 1013.52 1013.61 1013.65 1013.71 1013.88 1014.18 1014.59 1015.04 1015.46 1015.73 1015.81 1015.68 1015.36 1014.93 1014.51 1014.18 1014.02 1014.06 1014.27 1014.60 1014.98 1015.31 1015.55 1015.67 1015.69 1015.65 1015.61 1015.63 1015.75 1015.97 1016.28 1016.65 1017.04 1017.41 1017.75 1018.05 1018.32 1018.58
1011.21 1011.94 1012.63 1013.17 1013.52 1013.70 1013.76 1013.77 1013.83 1013.99 1014.29 1014.69 1015.13 1015.53 1015.80 1015.87 1015.74 1015.42 1014.99 1014.56 1014.20 1014.00 1013.98 1014.13 1014.41 1014.74 1015.05 1015.28 1015.42 1015.47 1015.46 1015.45 1015.47 1015.58 1015.78 1016.05 1016.39 1016.75 1017.10 1017.44 1017.75 1018.04 1018.33
1011.66 1012.34 1012.95 1013.42 1013.73 1013.89 1013.94 1013.97 1014.04 1014.22 1014.51 1014.89 1015.31 1015.68 1015.92 1015.99 1015.86 1015.56 1015.16 1014.74 1014.38 1014.15 1014.08 1014.17 1014.38 1014.65 1014.91 1015.12 1015.25 1015.31 1015.31 1015.30 1015.32 1015.40 1015.55 1015.78 1016.06 1016.37 1016.70 1017.03 1017.35 1017.67 1017.98
1012.06 1012.65 1013.18 1013.60 1013.88 1014.04 1014.13 1014.20 1014.31 1014.50 1014.79 1015.14 1015.52 1015.84 1016.05 1016.11 1016.00 1015.74 1015.39 1015.01 1014.67 1014.44 1014.35 1014.38 1014.51 1014.70 1014.90 1015.06 1015.16 1015.20 1015.19 1015.17 1015.16 1015.19 1015.29 1015.44 1015.65 1015.91 1016.20 1016.50 1016.82 1017.16 1017.50
1012.42 1012.91 1013.34 1013.70 1013.96 1014.15 1014.29 1014.41 1014.57 1014.79 1015.06 1015.38 1015.69 1015.96 1016.13 1016.18 1016.09 1015.89 1015.61 1015.30 1015.02 1014.82 1014.70 1014.69 1014.75 1014.86 1014.97 1015.07 1015.12 1015.12 1015.09 1015.03 1014.98 1014.96 1014.98 1015.05 1015.18 1015.36 1015.59 1015.86 1016.17 1016.51 1016.88
1012.76 1013.11 1013.45 1013.74 1013.99 1014.20 1014.40 1014.59 1014.80 1015.03 1015.28 1015.54 1015.79 1015.98 1016.11 1016.15 1016.10 1015.96 1015.77 1015.56 1015.36 1015.20 1015.09 1015.05 1015.04 1015.07 1015.10 1015.12 1015.11 1015.06 1014.99 1014.90 1014.80 1014.71 1014.65 1014.63 1014.67 1014.76 1014.92 1015.15 1015.43 1015.77 1016.14
1013.06 1013.28 1013.50 1013.72 1013.96 1014.20 1014.45 1014.71 1014.96 1015.20 1015.42 1015.62 1015.78 1015.90 1015.98 1016.01 1015.99 1015.94 1015.85 1015.75 1015.65 1015.55 1015.47 1015.40 1015.34 1015.30 1015.25 1015.20 1015.13 1015.03 1014.92 1014.79 1014.64 1014.49 1014.35 1014.24 1014.18 1014.19 1014.27 1014.43 1014.67 1014.99 1015.36
1013.30 1013.39 1013.50 1013.66 1013.88 1014.16 1014.46 1014.76 1015.05 1015.29 1015.48 1015.61 1015.69 1015.74 1015.77 1015.79 1015.81 1015.83 1015.86 1015.87 1015.87 1015.84 1015.80 1015.72 1015.63 1015.53 1015.41 1015.30 1015.17 1015.04 1014.90 1014.73 1014.54 1014.34 1014.13 1013.94 1013.79 1013.71 1013.70 1013.79 1013.98 1014.26 1014.61
1013.42 1013.40 1013.43 1013.55 1013.76 1014.06 1014.41 1014.77 1015.09 1015.33 1015.48 1015.56 1015.57 1015.55 1015.54 1015.55 1015.61 1015.70 1015.82 1015.94 1016.03 1016.08 1016.07 1016.00 1015.89 1015.74 1015.58 1015.42 1015.26 1015.10 1014.94 1014.75 1014.54 1014.30 1014.04 1013.78 1013.55 1013.38 1013.29 1013.30 1013.43 1013.65 1013.95
1013.36 1013.27 1013.25 1013.35 1013.58 1013.92 1014.33 1014.73 1015.08 1015.33 1015.47 1015.50 1015.46 1015.40 1015.35 1015.36 1015.45 1015.60 1015.79 1016.00 1016.16 1016.27 1016.29 1016.23 1016.11 1015.94 1015.75 1015.56 1015.39 1015.22 1015.05 1014.87 1014.65 1014.39 1014.09 1013.78 1013.49 1013.24 1013.08 1013.01 1013.05 1013.21 1013.45
1013.07 1012.97 1012.95 1013.07 1013.34 1013.73 1014.20 1014.66 1015.05 1015.32 1015.46 1015.47 1015.40 1015.31 1015.25 1015.27 1015.37 1015.56 1015.81 1016.06 1016.28 1016.42 1016.46 1016.41 1016.27 1016.09 1015.89 1015.70 1015.53 1015.38 1015.22 1015.05 1014.84 1014.58 1014.27 1013.92 1013.58 1013.28 1013.04 1012.90 1012.87 1012.94 1013.11
1012.57 1012.50 1012.53 1012.70 1013.04 1013.50 1014.03 1014.55 1014.99 1015.30 1015.45 1015.47 1015.40 1015.31 1015.25 1015.27 1015.38 1015.59 1015.86 1016.13 1016.36 1016.51 1016.56 1016.50 1016.37 1016.19 1015.99 1015.81 1015.66 1015.53 1015.40 1015.26 1015.06 1014.81 1014.50 1014.15 1013.78 1013.43 1013.14 1012.93 1012.83 1012.82 1012.91
1011.91 1011.92 1012.03 1012.28 1012.69 1013.23 1013.82 1014.40 1014.89 1015.24 1015.43 1015.48 1015.43 1015.35 1015.30 1015.32 1015.44 1015.65 1015.91 1016.17 1016.39 1016.52 1016.55 1016.49 1016.36 1016.19 1016.01 1015.85 1015.73 1015.63 1015.54 1015.43 1015.26 1015.03 1014.73 1014.38 1014.00 1013.63 1013.30 1013.04 1012.88 1012.80 1012.80
Thickness
5825 5818 5812 5809 5806 5803 5801 5799 5796 5794 5791 5788 5785 5782 5780 5778 5775 5773 5771 5769 5767 5766 5764 5763 5761 5760 5759 5758 5757 5756 5754 5753 5753 5753 5753 5753 5752 5751 5751 5750 5749 5748 5746
5825 5816 5810 5807 5804 5801 5799 5797 5795 5792 5789 5787 5784 5781 5778 5776 5773 5771 5769 5767 5766 5764 5762 5761 5759 5758 5757 5756 5755 5754 5754 5753 5752 5752 5751 5751 5750 5750 5749 5748 5747 5745 5744
5824 5814 5808 5805 5802 5799 5797 5795 5792 5790 5787 5784 5782 5779 5776 5774 5771 5769 5767 5765 5764 5762 5760 5758 5757 5756 5755 5754 5753 5752 5752 5752 5752 5751 5750 5750 5749 5748 5747 5746 5745 5743 5742
5824 5815 5808 5802 5799 5796 5794 5792 5789 5787 5784 5781 5779 5776 5774 5771 5769 5767 5765 5763 5761 5759 5758 5756 5755 5753 5752 5752 5751 5751 5751 5751 5751 5750 5750 5749 5748 5746 5745 5744 5743 5741 5741
5823 5813 5804 5800 5796 5793 5791 5788 5786 5784 5781 5778 5776 5773 5771 5769 5767 5765 5763 5761 5759 5757 5755 5754 5752 5751 5750 5749 5749 5748 5749 5749 5750 5750 5750 5748 5746 5744 5743 5742 5741 5740 5739
5820 5811 5802 5798 5794 5790 5787 5785 5782 5780 5778 5775 5772 5770 5768 5766 5764 5762 5760 5759 5757 5755 5754 5752 5750 5749 5748 5747 5746 5746 5747 5747 5749 5751 5750 5747 5744 5742 5741 5740 5739 5738 5737
5819 5808 5799 5794 5791 5787 5784 5781 5779 5776 5774 5772 5769 5767 5765 5763 5761 5759 5758 5756 5754 5753 5751 5750 5748 5747 5746 5745 5744 5743 5744 5745 5747 5750 5749 5746 5743 5741 5739 5738 5737 5736 5735
5817 5806 5796 5791 5787 5783 5780 5777 5775 5772 5770 5768 5766 5764 5762 5760 5759 5757 5755 5754 5752 5751 5749 5748 5746 5745 5743 5742 5741 5741 5741 5742 5746 5749 5748 5744 5741 5740 5738 5736 5735 5734 5733
5815 5804 5795 5789 5784 5780 5777 5774 5771 5768 5766 5764 5761 5760 5758 5757 5756 5755 5753 5752 5750 5749 5747 5746 5744 5742 5741 5740 5739 5738 5738 5739 5741 5745 5745 5741 5739 5738 5736 5735 5734 5733 5732
5810 5803 5795 5789 5783 5778 5774 5770 5767 5764 5761 5759 5758 5756 5754 5754 5753 5752 5751 5749 5748 5747 5746 5744 5743 5741 5740 5738 5737 5736 5736 5736 5739 5741 5741 5737 5735 5735 5735 5734 5733 5732 5731
5802 5798 5794 5788 5782 5778 5773 5768 5763 5760 5757 5755 5753 5752 5751 5751 5750 5749 5748 5747 5747 5746 5745 5743 5742 5740 5738 5737 5736 5735 5734 5735 5738 5738 5738 5735 5733 5732 5732 5732 5732 5731 5730
5790 5790 5787 5783 5778 5775 5771 5764 5760 5757 5753 5751 5749 5748 5747 5746 5746 5747 5746 5745 5745 5744 5743 5742 5741 5739 5737 5737 5736 5734 5734 5735 5736 5737 5737 5734 5731 5731 5731 5730 5730 5730 5730
5786 5783 5780 5776 5772 5768 5764 5759 5754 5752 5749 5747 5745 5744 5743 5743 5743 5743 5743 5743 5742 5741 5741 5741 5738 5737 5736 5736 5737 5735 5734 5736 5737 5737 5735 5733 5730 5729 5729 5729 5729 5729 5730
5779 5775 5773 5768 5764 5760 5757 5755 5751 5747 5746 5744 5741 5739 5739 5739 5740 5741 5741 5741 5740 5740 5739 5738 5736 5735 5735 5735 5734 5734 5733 5733 5734 5734 5733 5731 5729 5728 5728 5727 5727 5728 5729
5771 5768 5764 5761 5757 5754 5751 5749 5746 5743 5742 5740 5738 5735 5734 5735 5735 5736 5736 5737 5737 5737 5736 5734 5733 5733 5732 5732 5731 5732 5731 5731 5731 5731 5732 5730 5728 5727 5727 5726 5726 5727 5727
5764 5760 5758 5755 5751 5749 5746 5744 5741 5740 5738 5735 5732 5730 5728 5729 5728 5730 5731 5732 5733 5733 5732 5731 5730 5729 5728 5728 5729 5729 5730 5730 5730 5729 5729 5729 5727 5726 5726 5726 5725 5725 5726
5758 5755 5752 5750 5747 5745 5742 5741 5739 5737 5734 5731 5729 5726 5723 5723 5722 5723 5726 5728 5728 5728 5729 5728 5727 5726 5725 5726 5726 5726 5726 5727 5728 5727 5727 5726 5726 5726 5725 5725 5725 5724 5725
5755 5751 5750 5750 5744 5741 5739 5738 5736 5733 5730 5728 5725 5722 5718 5717 5717 5717 5720 5721 5721 5722 5723 5723 5722 5722 5721 5721 5721 5722 5724 5724 5725 5725 5725 5725 5725 5726 5725 5724 5724 5723 5724
5753 5749 5747 5745 5742 5739 5737 5735 5732 5729 5727 5725 5722 5717 5714 5713 5712 5712 5713 5714 5715 5716 5717 5718 5717 5715 5714 5714 5715 5718 5720 5721 5723 5724 5724 5725 5725 5725 5725 5724 5723 5723 5722
5750 5748 5745 5742 5740 5738 5735 5732 5730 5728 5726 5724 5720 5715 5712 5710 5708 5707 5708 5708 5708 5709 5710 5710 5709 5710 5709 5709 5711 5714 5716 5719 5721 5722 5723 5725 5724 5724 5724 5724 5723 5722 5721
5749 5745 5743 5740 5738 5735 5732 5729 5726 5723 5722 5722 5719 5714 5710 5707 5705 5704 5703 5702 5703 5703 5703 5703 5703 5702 5702 5705 5704 5705 5711 5717 5720 5722 5723 5724 5724 5724 5724 5724 5723 5722 5721
5748 5745 5743 5740 5737 5734 5732 5728 5725 5722 5721 5721 5718 5714 5710 5706 5703 5702 5699 5698 5698 5697 5697 5697 5697 5694 5695 5699 5697 5695 5695 5703 5713 5720 5720 5720 5720 5722 5722 5722 5721 5721 5720
5749 5747 5745 5741 5738 5734 5732 5729 5727 5723 5719 5718 5716 5713 5709 5705 5702 5699 5697 5695 5693 5693 5692 5691 5691 5689 5688 5691 5694 5691 5686 5687 5693 5706 5711 5713 5713 5714 5716 5717 5717 5717 5717
5753 5752 5748 5743 5739 5735 5731 5727 5722 5718 5714 5715 5713 5712 5709 5705 5702 5699 5695 5692 5690 5689 5688 5688 5687 5684 5684 5683 5687 5690 5690 5688 5681 5685 5696 5704 5707 5708 5707 5710 5713 5713 5714
5758 5755 5750 5744 5739 5735 5731 5726 5721 5717 5716 5714 5712 5709 5707 5705 5703 5699 5695 5691 5687 5685 5685 5683 5681 5680 5679 5678 5678 5680 5682 5683 5683 5678 5679 5688 5695 5701 5703 5705 5706 5708 5709
5760 5757 5752 5744 5738 5734 5730 5726 5721 5716 5712 5708 5706 5703 5702 5702 5701 5698 5694 5689 5684 5682 5680 5678 5676 5675 5674 5673 5672 5672 5672 5672 5673 5673 5672 5676 5681 5690 5696 5699 5701 5702 5704